Weather History for Eagle, CO

Change the Weather History Date:

Wednesday, July 31, 2013

  Actual Average Record
Temperature  
Mean Temperature 66 °F -  
Max Temperature 84 °F 85 °F 95 °F (1963)
Min Temperature 48 °F 48 °F 32 °F (1950)
Cooling Degree Days 1    
Growing Degree Days 16 (Base 50)    
Moisture  
Dew Point 43 °F    
Average Humidity 52    
Maximum Humidity 93    
Minimum Humidity 18    
Precipitation  
Precipitation 0.00 in - - ()
Sea Level Pressure  
Sea Level Pressure 30.36 in    
Wind  
Wind Speed 3 mph (South)    
Max Wind Speed 22 mph    
Max Gust Speed 28 mph    
Visibility 10 miles    
Events      
Averages and records for this station are not official NWS values.
T = Trace of Precipitation, MM = Missing Value Source: NWS Daily Summary

Daily Weather History Graph

Daily Weather History Graph

Search for Another Location

Airport:

Trip Planner

Search our weather history database for the weather conditions in past years. The results will help you decide how hot, cold, wet, or windy it might be!

Date:

Astronomy

Jul. 31, 2013 Rise Set
Actual Time 6:06 AM MDT 8:21 PM MDT
Civil Twilight 5:36 AM MDT 8:51 PM MDT
Nautical Twilight 4:58 AM MDT 9:28 PM MDT
Astronomical Twilight 4:18 AM MDT 10:08 PM MDT
Moon 1:03 AM MDT (7/31) 3:40 PM MDT (7/31)
Length of Visible Light 15h 15m
Length of Day
14h 14m
Waning Crescent, 31% of the Moon is Illuminated
Jul 31
Waning Crescent
Aug 6
New
Aug 14
First Quarter
Aug 20
Full
Aug 28
Last Quarter

Hourly Weather History & Observations

Time (MDT) Temp. Dew Point Humidity Pressure Visibility Wind Dir Wind Speed Gust Speed Precip Events Conditions
12:15 AM 59.0 °F 46.4 °F 63% 30.40 in 10.0 mi SE 3.5 mph - N/A   Clear
12:55 AM 57.2 °F 46.4 °F 67% 30.41 in 10.0 mi Calm Calm - N/A   Clear
1:15 AM 57.2 °F 46.4 °F 67% 30.41 in 10.0 mi SSE 3.5 mph - N/A   Clear
1:35 AM 57.2 °F 46.4 °F 67% 30.41 in 10.0 mi SSE 3.5 mph - N/A   Clear
1:55 AM 55.4 °F 46.4 °F 72% 30.41 in 10.0 mi Calm Calm - N/A   Clear
2:15 AM 55.4 °F 46.4 °F 72% 30.42 in 10.0 mi SSE 3.5 mph - N/A   Clear
2:35 AM 55.4 °F 46.4 °F 72% 30.42 in 10.0 mi Calm Calm - N/A   Clear
2:55 AM 53.6 °F 46.4 °F 77% 30.42 in 10.0 mi South 3.5 mph - N/A   Clear
3:15 AM 53.6 °F 46.4 °F 77% 30.42 in 10.0 mi Calm Calm - N/A   Clear
3:35 AM 53.6 °F 46.4 °F 77% 30.42 in 10.0 mi East 3.5 mph - N/A   Clear
3:55 AM 51.8 °F 46.4 °F 82% 30.42 in 10.0 mi East 4.6 mph - N/A   Clear
4:15 AM 51.8 °F 46.4 °F 82% 30.42 in 10.0 mi ESE 4.6 mph - N/A   Clear
4:35 AM 51.8 °F 46.4 °F 82% 30.43 in 10.0 mi Calm Calm - N/A   Clear
5:15 AM 51.8 °F 44.6 °F 76% 30.44 in 10.0 mi Calm Calm - N/A   Clear
5:35 AM 48.2 °F 46.4 °F 93% 30.44 in 10.0 mi Calm Calm - N/A   Clear
5:55 AM 50.0 °F 46.4 °F 87% 30.45 in 10.0 mi Calm Calm - N/A   Clear
6:15 AM 48.2 °F 44.6 °F 87% 30.46 in 10.0 mi Calm Calm - N/A   Clear
6:35 AM 50.0 °F 46.4 °F 87% 30.47 in 10.0 mi Calm Calm - N/A   Clear
6:50 AM 51.8 °F 46.4 °F 82% 30.47 in 10.0 mi Calm Calm - N/A   Scattered Clouds
7:50 AM 53.6 °F 48.2 °F 82% 30.48 in 10.0 mi Calm Calm - N/A   Scattered Clouds
8:50 AM 55.4 °F 44.6 °F 67% 30.48 in 10.0 mi Calm Calm - N/A   Mostly Cloudy
9:50 AM 59.0 °F 46.4 °F 63% 30.47 in 10.0 mi Calm Calm - N/A   Mostly Cloudy
10:50 AM 64.4 °F 46.4 °F 52% 30.45 in 10.0 mi Calm Calm - N/A   Scattered Clouds
11:50 AM 71.6 °F 42.8 °F 35% 30.42 in 10.0 mi Calm Calm - N/A   Scattered Clouds
12:50 PM 78.8 °F 39.2 °F 24% 30.38 in 10.0 mi Calm Calm - N/A   Scattered Clouds
1:50 PM 82.4 °F 39.2 °F 21% 30.35 in 10.0 mi Calm Calm - N/A   Scattered Clouds
2:50 PM 84.2 °F 37.4 °F 19% 30.33 in 10.0 mi SW 21.9 mph 27.6 mph N/A   Mostly Cloudy
3:50 PM 84.2 °F 35.6 °F 18% 30.31 in 10.0 mi SSW 11.5 mph - N/A   Scattered Clouds
4:50 PM 84.2 °F 35.6 °F 18% 30.28 in 10.0 mi SW 11.5 mph - N/A   Scattered Clouds
5:50 PM 82.4 °F 37.4 °F 20% 30.27 in 10.0 mi WSW 10.4 mph - N/A   Scattered Clouds
6:50 PM 84.2 °F 37.4 °F 19% 30.25 in 10.0 mi WSW 11.5 mph - N/A   Scattered Clouds
7:15 PM 84.2 °F 37.4 °F 19% 30.25 in 10.0 mi SW 11.5 mph - N/A   Clear
7:35 PM 82.4 °F 39.2 °F 21% 30.25 in 10.0 mi SW 8.1 mph - N/A   Clear
7:55 PM 82.4 °F 39.2 °F 21% 30.25 in 10.0 mi SW 8.1 mph - N/A   Clear
8:15 PM 80.6 °F 39.2 °F 23% 30.25 in 10.0 mi SW 8.1 mph - N/A   Clear
8:35 PM 77.0 °F 42.8 °F 29% 30.26 in 10.0 mi West 4.6 mph - N/A   Clear
8:55 PM 77.0 °F 39.2 °F 26% 30.26 in 10.0 mi NW 5.8 mph - N/A   Scattered Clouds
9:15 PM 73.4 °F 39.2 °F 29% 30.27 in 10.0 mi Calm Calm - N/A   Partly Cloudy
9:35 PM 71.6 °F 42.8 °F 35% 30.28 in 10.0 mi ENE 5.8 mph - N/A   Clear
9:55 PM 69.8 °F 42.8 °F 38% 30.28 in 10.0 mi East 6.9 mph - N/A   Clear
10:15 PM 69.8 °F 42.8 °F 38% 30.28 in 10.0 mi SE 3.5 mph - N/A   Clear
10:35 PM 66.2 °F 42.8 °F 43% 30.28 in 10.0 mi SE 3.5 mph - N/A   Clear
10:55 PM 66.2 °F 42.8 °F 43% 30.28 in 10.0 mi Calm Calm - N/A   Clear
11:15 PM 64.4 °F 42.8 °F 45% 30.28 in 10.0 mi SE 3.5 mph - N/A   Clear
11:35 PM 64.4 °F 42.8 °F 45% 30.29 in 10.0 mi SE 3.5 mph - N/A   Clear
11:55 PM 62.6 °F 42.8 °F 48% 30.28 in 10.0 mi Calm Calm - N/A   Clear